Phuket, Thailand

11:57 AM ICT on February 13, 2016 (GMT +0700)
Phuket International

Weather History for VTSP - May, 2013

Change the Weather History Date:

Sunday, May 19, 2013

  Actual Average Record
Temperature  
Mean Temperature 80 °F -  
Max Temperature 87 °F 88 °F 96 °F (1997)
Min Temperature 73 °F 77 °F 68 °F (2002)
Cooling Degree Days 15    
Growing Degree Days 30 (Base 50)    
Moisture  
Dew Point 76 °F    
Average Humidity 88    
Maximum Humidity 100    
Minimum Humidity 74    
Precipitation  
Precipitation 0.04 in 0.40 in - ()
Sea Level Pressure  
Sea Level Pressure 29.83 in    
Wind  
Wind Speed 4 mph ()    
Max Wind Speed 15 mph    
Max Gust Speed 22 mph    
Visibility 4.4 miles    
Events Rain , Thunderstorm    
Averages and records for this station are not official NWS values.
T = Trace of Precipitation, MM = Missing Value Source: Averaged Metar Reports

Daily Weather History Graph

Daily Weather History Graph

Search for Another Location

Airport or City:

Trip Planner

Search our weather history database for the weather conditions in past years. The results will help you decide how hot, cold, wet, or windy it might be!

Date:

Astronomy

May. 19, 2013 Rise Set
Actual Time 6:07 AM ICT 6:38 PM ICT
Civil Twilight 5:45 AM ICT 7:00 PM ICT
Nautical Twilight 5:19 AM ICT 7:27 PM ICT
Astronomical Twilight 4:53 AM ICT 7:53 PM ICT
Moon 1:19 PM ICT (5/19) 1:00 AM ICT (5/19)
Length of Visible Light 13h 15m
Length of Day
12h 30m
First Quarter, 60% of the Moon is Illuminated
May 19
First Quarter
May 25
Full
Jun 1
Last Quarter
Jun 8
New
Jun 17
First Quarter

Hourly Weather History & Observations

Time (ICT) Temp. Heat Index Dew Point Humidity Pressure Visibility Wind Dir Wind Speed Gust Speed Precip Events Conditions
12:00 AM 80.6 °F 86.2 °F 75.2 °F 84% 29.86 in 5.0 mi Variable 6.9 mph - N/A   Mostly Cloudy
12:30 AM 82.4 °F 89.5 °F 75.2 °F 79% 29.86 in 5.0 mi Variable 5.8 mph - N/A   Mostly Cloudy
1:00 AM 81 °F - 77 °F 83% 29.81 in 6 mi WSW 4.6 mph - -   Partly Cloudy
1:00 AM 80.6 °F 86.2 °F 75.2 °F 84% 29.83 in 5.0 mi SW 4.6 mph - N/A   Mostly Cloudy
1:30 AM 82.4 °F 89.5 °F 75.2 °F 79% 29.83 in 5.0 mi WSW 12.7 mph - N/A   Mostly Cloudy
2:00 AM 82.4 °F 89.5 °F 75.2 °F 79% 29.80 in 5.0 mi SW 5.8 mph - N/A   Mostly Cloudy
2:30 AM 82.4 °F 90.9 °F 77.0 °F 84% 29.80 in 5.0 mi WSW 8.1 mph - N/A   Mostly Cloudy
3:00 AM 82.4 °F 90.9 °F 77.0 °F 84% 29.80 in 5.0 mi Variable 4.6 mph - N/A   Mostly Cloudy
3:30 AM 77.0 °F - 73.4 °F 89% 29.80 in 1.9 mi Variable 2.3 mph - N/A Rain Rain
4:00 AM 77.0 °F - 75.2 °F 94% 29.80 in 4.3 mi Calm Calm - N/A Rain Rain
4:30 AM 77.0 °F - 75.2 °F 94% 29.80 in 4.3 mi Variable 2.3 mph - N/A   Scattered Clouds
5:00 AM 78.8 °F - 75.2 °F 89% 29.80 in 4.3 mi Variable 1.2 mph - N/A   Scattered Clouds
5:30 AM 78.8 °F - 75.2 °F 89% 29.83 in 4.3 mi NNE 3.5 mph - N/A   Mostly Cloudy
6:00 AM 78.8 °F - 75.2 °F 89% 29.80 in 4.3 mi ENE 4.6 mph - N/A Thunderstorm Thunderstorm
6:30 AM 77.0 °F - 75.2 °F 94% 29.86 in 0.6 mi SSW 10.4 mph 21.9 mph N/A Rain Rain
7:00 AM 76 °F - 76 °F 100% 29.81 in 4 mi Calm Calm - - Rain , Thunderstorm Thunderstorms and Rain
7:00 AM 75.2 °F - 73.4 °F 94% 29.86 in 1.9 mi Variable 2.3 mph - N/A Rain Rain
7:30 AM 75.2 °F - 73.4 °F 94% 29.86 in 3.1 mi Variable 2.3 mph - N/A Rain Rain
8:00 AM 75.2 °F - 73.4 °F 94% 29.86 in 3.1 mi East 3.5 mph - N/A Rain Rain
8:30 AM 77.0 °F - 73.4 °F 89% 29.86 in 3.7 mi West 5.8 mph - N/A Rain Rain
9:00 AM 77.0 °F - 75.2 °F 94% 29.89 in 3.7 mi WNW 5.8 mph - N/A Rain Rain
9:30 AM 78.8 °F - 75.2 °F 89% 29.89 in 2.5 mi WNW 9.2 mph - N/A Rain Rain
10:00 AM 78.8 °F - 75.2 °F 89% 29.89 in 3.7 mi NNW 5.8 mph - N/A Rain Rain
10:30 AM 78.8 °F - 75.2 °F 89% 29.89 in 4.3 mi NNE 3.5 mph - N/A Rain Rain
11:00 AM 80.6 °F 86.2 °F 75.2 °F 84% 29.89 in 5.0 mi NNW 5.8 mph - N/A   Mostly Cloudy
11:30 AM 80.6 °F 86.2 °F 75.2 °F 84% 29.89 in 4.3 mi Calm Calm - N/A Rain Rain
12:00 PM 80.6 °F 86.2 °F 75.2 °F 84% 29.86 in 4.3 mi Calm Calm - N/A Rain Rain
12:30 PM 78.8 °F - 77.0 °F 94% 29.86 in 4.3 mi Calm Calm - N/A Rain Rain
1:00 PM 82 °F - 78 °F 83% 29.82 in 4 mi Calm Calm - - Rain Light Rain
1:00 PM 80.6 °F 87.1 °F 77.0 °F 89% 29.83 in 4.3 mi Calm Calm - N/A Rain Light Rain
1:30 PM 80.6 °F 87.1 °F 77.0 °F 89% 29.80 in 4.3 mi Calm Calm - N/A Rain Rain
2:00 PM 80.6 °F 87.1 °F 77.0 °F 89% 29.80 in 4.3 mi WSW 5.8 mph - N/A Rain Rain
2:30 PM 80.6 °F 87.1 °F 77.0 °F 89% 29.77 in 4.3 mi WNW 5.8 mph - N/A Rain Light Rain
3:00 PM 82.4 °F 90.9 °F 77.0 °F 84% 29.80 in 4.3 mi WNW 5.8 mph - N/A Rain Rain
3:30 PM 82.4 °F 90.9 °F 77.0 °F 84% 29.77 in 4.3 mi Calm Calm - N/A Rain Rain
4:00 PM 82.4 °F 92.4 °F 78.8 °F 89% 29.77 in 5.6 mi WNW 5.8 mph - N/A Thunderstorm Thunderstorm
4:30 PM 84.2 °F 94.1 °F 77.0 °F 79% 29.77 in 5.0 mi WNW 8.1 mph - N/A Thunderstorm Thunderstorm
5:00 PM 78.8 °F - 73.4 °F 83% 29.77 in 4.3 mi West 11.5 mph - N/A Rain Rain
5:30 PM 78.8 °F - 75.2 °F 89% 29.77 in 6.2 mi WSW 3.5 mph - N/A   Mostly Cloudy
6:00 PM 78.8 °F - 73.4 °F 83% 29.77 in 5.0 mi Calm Calm - N/A   Mostly Cloudy
6:30 PM 77.0 °F - 75.2 °F 94% 29.77 in 5.0 mi Calm Calm - N/A   Mostly Cloudy
7:00 PM 79 °F - 78 °F 94% 29.75 in 6 mi Calm Calm - -   Partly Cloudy
7:00 PM 77.0 °F - 75.2 °F 94% 29.80 in 5.0 mi Calm Calm - N/A   Mostly Cloudy
7:30 PM 77.0 °F - 75.2 °F 94% 29.80 in 5.0 mi Calm Calm - N/A   Mostly Cloudy
8:00 PM 78.8 °F - 75.2 °F 89% 29.80 in 5.0 mi Calm Calm - N/A   Mostly Cloudy
8:30 PM 77.0 °F - 75.2 °F 94% 29.83 in 5.0 mi Calm Calm - N/A   Mostly Cloudy
9:00 PM 82.4 °F 90.9 °F 77.0 °F 84% 29.83 in 5.0 mi West 6.9 mph - N/A   Mostly Cloudy
9:30 PM 80.6 °F 85.4 °F 73.4 °F 79% 29.86 in 5.0 mi West 15.0 mph - N/A   Mostly Cloudy
10:00 PM 80.6 °F 86.2 °F 75.2 °F 84% 29.86 in 5.0 mi WNW 9.2 mph - N/A   Mostly Cloudy
10:30 PM 78.8 °F - 75.2 °F 89% 29.86 in 5.0 mi Variable 2.3 mph - N/A   Mostly Cloudy
11:00 PM 84.2 °F 94.1 °F 77.0 °F 79% 29.86 in 5.0 mi West 13.8 mph - N/A   Mostly Cloudy
11:30 PM 84.2 °F 92.3 °F 75.2 °F 74% 29.86 in 5.0 mi West 15.0 mph - N/A   Mostly Cloudy